Game POKER ONLINE By JWPOKER

Jackpot

Texas Poker Multi Jackpot System

Kini Telah hadir Jackpot SUPER ROYAL FLUSH

Kini Telah hadir Jackpot 2000 (khusus table VIP keatas).

Ikutilah global jackpot yang tersedia di system kami, dengan system jackpot terbaru dan pertama di indonesia, anda dapat membeli jackpot dengan harga 100 rupiah saja dan menangkan hadiahnya hingga puluhan juta rupiah.

Jackpot bukanlah suatu keharusan untuk dibeli, namun kami memberikan suatu fitur tambahan untuk member tercinta dari www.jwpoker.win.

Terdapat tiga pilihan harga jackpot yang bisa anda beli yaitu :100,500,1000 dan 2000(khusus table VIP Keatas) rupiah.

Hadiah dari Multi jackpot system www.jwpoker.win

  1. full house x 10 harga jackpot yang anda beli.
      (contoh:anda membeli 1000 maka:1000 X10 = 10.000)
  2. four of kind x 250 harga jackpot yang anda beli
      (contoh:anda membeli 1000 maka:1000 X250 = 250.000)
  3. Straight flush x 1200
      (contoh:anda membeli 1000 maka:1000 X1200 = 1.200.000)
  4. Royal flush x 10000 harga jackpot yang anda beli
      (contoh:anda membeli 1000 maka:1000 X10000 = 10.000.000)
  5. SUPER ROYAL FLUSH x 30000 harga jackpot yang anda beli
      (contoh:anda membeli 1000 maka:1000 X30000 = 30.000.000)

Kondisi kartu

  1. full house adalah kondisi kartu dimana kartu anda dan kartu tengah dengan total 7 kartu bisa mendapatkan nilai 5 kartu dengan kombinasi 1 tris(three of kind) dan 1 pair, contoh 3 kartu 10 dan 2 kartu 5
  2. Four of kind adalah kondisi kartu dimana kartu anda dan kartu tengah dengan total 7 kartu bisa mendapatkan nilai 5 kartu dengan kombinasi 4 kartu yang sama jumlah dan 1 kartu apapun juga contoh anda mendapatkan 4 buah kartu angka 3 dan 1 kartu apapun.
  3. Staright flush adalah kondisi kartu dimana kartu anda dan kartu tengah dengan total 7 kartu bisa mendapatkan nilai 5 kartu dengan kombinasi seri / staright dengan kembang yang sama contoh : urutan kartu dari angka 5, 6, 7, 8 , 9 10 dengan kembang yg sama misalnya as hati
  4. Royal flush adalah kondisi kartu dimana kartu anda dan kartu tengah dengan total 7 kartu bisa mendapatkan nilai 5 kartu dengan kombinasi seri / staright dengan kembang yang sama tetapi kartu tersebut haruslah dimulai dari 10. contoh 10, Queen, Jack, King dan aces dengan kembang yang sama
  5. Super Royal flush adalah kondisi kartu dimana Kedua kartu anda digabung dengan 3 kartu pertama meja haruslah royal flush. contoh kartu anda 10,Queen kembang sama dan 3 kartu pertama meja adalah Jack, King dan aces dengan kembang yang sama

Demikian adalah penjelasan dari Multi Jackpot www.jwpoker.win terima kasih dan selamat bermain salam hoki dari kami

Texas Poker Jackpot Winner

TOP SUPER ROYAL FLUSH
No.TanggalNamaPriceWin
121/09 14:11ROYALJOZZSuper Royal flush60,000,000
221/09 13:43BA_ATIYOSuper Royal flush6,000,000
321/09 12:23B8EKCBJIYMSuper Royal flush3,000,000
421/09 08:32TUPO25Super Royal flush3,000,000
521/09 07:21SLOME898Super Royal flush30,000,000
TOP ROYAL FLUSH
No.TanggalNamaPriceWin
122/09 00:38AALLIINN88Royal flush1,000,000
222/09 00:27F2000Royal flush5,000,000
322/09 00:25A0B1B848Royal flush2,000,000
422/09 00:23WOLFRAMRoyal flush5,000,000
522/09 00:23GRUFFINZ1Royal flush2,000,000
TOP STRAIGHT FLUSH
No.TanggalNamaPriceWin
122/09 00:40GEHENG87Straight Flush600,000
222/09 00:40JACKY1212Straight Flush240,000
322/09 00:39LEVINZHANGStraight Flush600,000
422/09 00:37DD6A70ECStraight Flush120,000
522/09 00:35GINTING3Straight Flush120,000
LATEST JACKPOT
No.TanggalNamaPriceWin
122/09 00:40GEHENG87Straight Flush600,000
222/09 00:40JCKP999Full House1,000
322/09 00:40BGANGG4Full House1,000
422/09 00:40A09ED367Full House2,000
522/09 00:40PALALOLELOFull House2,000
622/09 00:40ARTHUR26Full House10,000
722/09 00:40SPYILIEZFull House10,000
822/09 00:40JACKY1212Straight Flush240,000
922/09 00:40BOEDOELFull House5,000
1022/09 00:40REGRADOFull House20,000
1122/09 00:40KXVMGS42A8Four Of A Kind500,000
1222/09 00:40KARIN69Full House1,000
1322/09 00:40PUJIKFull House1,000
1422/09 00:40MIMIN3Full House2,000
1522/09 00:40ALFATULFull House5,000
1622/09 00:40NICO998Full House20,000
1722/09 00:40VEGA82Full House1,000
1822/09 00:39GAWI12Full House1,000
1922/09 00:39APRILIA35Four Of A Kind50,000
2022/09 00:39OLIVER90Full House10,000
2122/09 00:39E1L35I8YMSFull House5,000
2222/09 00:39BUP4T1PWKFull House5,000
2322/09 00:39TOJINK20Full House10,000
2422/09 00:39TUTUH_DAFour Of A Kind125,000
2522/09 00:39KE58RCU8T5Full House5,000
2622/09 00:39ALPIYAN13Full House10,000
2722/09 00:39BP884186Full House10,000
2822/09 00:39KING_AKFull House10,000
2922/09 00:39CATALEY4Full House10,000
3022/09 00:39DDG272Full House500
3122/09 00:39SJKFKADHFLFull House10,000
3222/09 00:39SAANANE11Full House5,000
3322/09 00:39LUXIFull House2,000
3422/09 00:39NINGRAT888Full House10,000
3522/09 00:39F9E18A20Full House2,000
3622/09 00:39X9S4CT86XDFull House2,000
3722/09 00:39UCINGBUDUGFull House5,000
3822/09 00:39PECEL25Full House5,000
3922/09 00:39V0LDPOKERFull House2,000
4022/09 00:39IKOHFALSFull House1,000
4122/09 00:39H4J412Full House2,000
4222/09 00:39A2FE5CE1Four Of A Kind50,000
4322/09 00:39JLNMGLFull House10,000
4422/09 00:39YPB7XPS4ADFull House2,000
4522/09 00:39ROCHYADI99Four Of A Kind25,000
4622/09 00:39KID_PKRFour Of A Kind125,000
4722/09 00:39TOBVATFull House2,000
4822/09 00:39S3MP4KK6RBFull House10,000
4922/09 00:39TUYULRP00Full House10,000
5022/09 00:39BC1D7DB8Full House2,000

Domino Multi Jackpot System

Ikutilah global jackpot yang tersedia di system kami, dengan system jackpot terbaru dan pertama di indonesia, anda dapat membeli jackpot dengan harga 100 rupiah saja dan menangkan hadiahnya hingga puluhan juta rupiah.

Jackpot bukanlah suatu keharusan untuk dibeli, namun kami memberikan suatu fitur tambahan untuk member tercinta dari www.jwpoker.win.

Terdapat tiga pilihan harga jackpot yang bisa anda beli yaitu :100,500 dan 1000 rupiah.

Hadiah dari Multi jackpot system www.jwpoker.win

  1. Murni Kecil x 50 harga jackpot yang anda beli.
      (contoh:anda membeli 1000 maka:1000 X 50 = 50.000)
  2. Murni Besar x 50 harga jackpot yang anda beli
      (contoh:anda membeli 1000 maka:1000 X 50 = 50.000)
  3. BALAK x 100 harga jackpot yang anda beli
      (contoh:anda membeli 1000 maka:1000 X 100 = 100.000)
  4. ENAM DEWA x 6666 harga jackpot yang anda beli
      (contoh:anda membeli 1000 maka:1000 X 6666 = 6.666.000)

Demikian adalah penjelasan dari Multi Jackpot www.jwpoker.win terima kasih dan selamat bermain salam hoki dari kami

Domino Jackpot Winner

TOP ENAM DEWA
No.TanggalNamaPriceWin
121/09 23:35TEMPE444murni enam666,600
221/09 21:47MORBAG029murni enam3,333,000
321/09 21:27STW79murni enam3,333,000
421/09 21:20FIRMIHmurni enam666,600
521/09 21:02ADUL4444murni enam6,666,000
TOP BALAK
No.TanggalNamaPriceWin
122/09 00:39RAVA303balak50,000
222/09 00:39J1010balak100,000
322/09 00:37TONO757balak10,000
422/09 00:36C84SHBOY24699balak100,000
522/09 00:31JEKP0T789balak50,000
LATEST JACKPOT
No.TanggalNamaPriceWin
122/09 00:40GRANDONG96murni kecil50,000
222/09 00:39RAVA303balak50,000
322/09 00:39J1010balak100,000
422/09 00:39SEVENGODmurni besar50,000
522/09 00:38UBD05murni besar50,000
622/09 00:37TONO757balak10,000
722/09 00:37QQRULIYAHmurni besar25,000
822/09 00:37JALIMINSBRmurni kecil5,000
922/09 00:36RONGGA69lucky9910,000
1022/09 00:36OKAJAYAmurni besar5,000
1122/09 00:36SIDE72lucky9950,000
1222/09 00:36UDUZ22murni besar50,000
1322/09 00:36C84SHBOY24699balak100,000
1422/09 00:35HAZEL01murni kecil25,000
1522/09 00:35APINK34murni kecil5,000
1622/09 00:34ANGKE888murni besar50,000
1722/09 00:34ANTOK55murni besar50,000
1822/09 00:33ROOM28murni besar50,000
1922/09 00:32LALALILI88murni besar50,000
2022/09 00:31JEKP0T789balak50,000
2122/09 00:31CIHUUII005lucky992,500
2222/09 00:31VIOLET72balak50,000
2322/09 00:31KOCEXKACEKmurni besar50,000
2422/09 00:30SNW4XPMWZDmurni besar50,000
2522/09 00:30JPWINNER87murni besar50,000
2622/09 00:30GEGER057murni besar50,000
2722/09 00:30GANDA40murni besar50,000
2822/09 00:30HAM626murni kecil50,000
2922/09 00:29KECUBUNG01murni kecil50,000
3022/09 00:29FRANS48murni besar50,000
3122/09 00:28OKAJAYAmurni besar5,000
3222/09 00:28AYAHOLOTmurni besar50,000
3322/09 00:27VIOLET72murni kecil25,000
3422/09 00:27TARAUPmurni kecil50,000
3522/09 00:27VIOLET72murni kecil25,000
3622/09 00:27AKEB4murni kecil5,000
3722/09 00:26TNHOKY66murni kecil5,000
3822/09 00:26SUTAR1234murni besar50,000
3922/09 00:26LOTUS0308murni besar50,000
4022/09 00:25CEBEEM123lucky9910,000
4122/09 00:25TM0348UJQXmurni kecil50,000
4222/09 00:25ASDGGHJJJJlucky9925,000
4322/09 00:24SAPI1978murni besar50,000
4422/09 00:24HOKI_66murni kecil50,000
4522/09 00:24SARAHFmurni kecil50,000
4622/09 00:23SOKIPUNAIbalak100,000
4722/09 00:23T212BOM99murni besar5,000
4822/09 00:23AJASHmurni kecil25,000
4922/09 00:23ADEKBDlucky9925,000
5022/09 00:22NIW5MJ545Pmurni kecil50,000

Ceme Multi Jackpot System

Jackpot dilihat dari gabungan kartu pemain dengan kartu bandar. Bandar harus membeli jackpot sebanyak jumlah player yang sedang duduk. Sebagai contoh bila terdapat 3 pemain duduk bermain, dan bandar memutuskan untuk membeli jackpot Rp 1.000, maka pada periode tersebut bandar akan membeli jackpot sebanyak 3xRp1.000 = Rp3.000.

Jackpot bukanlah suatu keharusan untuk dibeli, namun kami memberikan suatu fitur tambahan untuk member tercinta dari www.jwpoker.win.

Terdapat tiga pilihan harga jackpot yang bisa anda beli yaitu :100,500 dan 1000 rupiah.

Hadiah dari Multi jackpot system www.jwpoker.win

  1. Murni Kecil x 50 harga jackpot yang anda beli.
      (contoh:anda membeli 1000 maka:1000 X 50 = 50.000)
  2. Murni Besar x 50 harga jackpot yang anda beli
      (contoh:anda membeli 1000 maka:1000 X 50 = 50.000)
  3. BALAK x 200 harga jackpot yang anda beli
      (contoh:anda membeli 1000 maka:1000 X 200 = 200.000)
  4. ENAM DEWA x 6666 harga jackpot yang anda beli
      (contoh:anda membeli 1000 maka:1000 X 6666 = 6.666.000)

Demikian adalah penjelasan dari Multi Jackpot www.jwpoker.win terima kasih dan selamat bermain salam hoki dari kami

Ceme Jackpot Winner

TOP ENAM DEWA
No.TanggalNamaPriceWin
122/09 00:33BAYCODETmurni enam6,666,000
222/09 00:33ANARKI88murni enam6,666,000
322/09 00:25MYLANOmurni enam6,666,000
422/09 00:25MLD1123murni enam6,666,000
522/09 00:13SANUR123murni enam6,666,000
TOP BALAK
No.TanggalNamaPriceWin
122/09 00:39AY6balak200,000
222/09 00:39SHERMYbalak200,000
322/09 00:39CAGE46balak200,000
422/09 00:38FANAMZbalak100,000
522/09 00:37ROMEO719balak20,000
LATEST JACKPOT
No.TanggalNamaPriceWin
122/09 00:40DC_QWEENmurni besar25,000
222/09 00:40HAIPOKER2murni besar25,000
322/09 00:40KORNEL86murni kecil50,000
422/09 00:40TOMAT12murni kecil50,000
522/09 00:39MUMBUL45murni kecil50,000
622/09 00:39PPA_99murni besar50,000
722/09 00:39IPHONE_MAXmurni besar50,000
822/09 00:39AY6balak200,000
922/09 00:39KABELITmurni kecil50,000
1022/09 00:39MARL1203murni besar50,000
1122/09 00:39INACANT1Kmurni kecil5,000
1222/09 00:39DEVA421murni kecil50,000
1322/09 00:39HERCULLEZmurni besar5,000
1422/09 00:39APUNKSmurni kecil5,000
1522/09 00:39NOVE567murni kecil50,000
1622/09 00:39AVERO69murni kecil25,000
1722/09 00:39FANAMZmurni kecil25,000
1822/09 00:39SHERMYbalak200,000
1922/09 00:39CAGE46balak200,000
2022/09 00:39SADARKANmurni kecil50,000
2122/09 00:39ANAKMAMAQUmurni kecil5,000
2222/09 00:39QMORAmurni besar50,000
2322/09 00:39EKOO96murni besar25,000
2422/09 00:39QIUQIU99murni kecil50,000
2522/09 00:38BLACK_OPSmurni besar50,000
2622/09 00:38PAIJO85murni besar5,000
2722/09 00:38BNJOYmurni kecil25,000
2822/09 00:38KOY68murni kecil50,000
2922/09 00:38CEDOLImurni kecil25,000
3022/09 00:38RONALD079murni kecil50,000
3122/09 00:38KEMPET501murni kecil50,000
3222/09 00:38FANAMZbalak100,000
3322/09 00:38HERUBLACKmurni besar50,000
3422/09 00:38PAKDODI1murni besar5,000
3522/09 00:38MELAYUSPmurni besar25,000
3622/09 00:38B4N99U5murni besar5,000
3722/09 00:38TOMAT12murni besar50,000
3822/09 00:37DIKA070898murni kecil25,000
3922/09 00:37REGARD47murni kecil25,000
4022/09 00:37EC410CDAmurni kecil25,000
4122/09 00:37FANAMZmurni kecil25,000
4222/09 00:37DHAYERZZmurni besar5,000
4322/09 00:37ROMEO719balak20,000
4422/09 00:37FXB8ZE3PDYbalak100,000
4522/09 00:37PIJE13_murni kecil5,000
4622/09 00:37WON2000murni kecil5,000
4722/09 00:37SHERMYmurni kecil50,000
4822/09 00:37F4A2D2D2murni kecil25,000
4922/09 00:37SHERMYmurni kecil50,000
5022/09 00:37SHERMYmurni kecil50,000